EW6500 Weather Reports


time (UTC)temp
C
wind
direction
speed
KPH
gust
KPH
rain 1hr
cm
rain 24hr
cm
rain mn
cm
humidity
%
barometer
mb
20260503204554 12 109 0.0 1.6 0.00 0.00 0.00 91 1027.6
20260503203107 12 110 0.0 0.0 0.00 0.00 0.00 91 1027.7
20260503201555 12 111 0.0 6.4 0.00 0.00 0.00 91 1027.6
20260503200051 12 69 0.0 3.2 0.00 0.00 0.00 91 1027.6
20260503194555 12 69 0.0 3.2 0.00 0.00 0.00 91 1027.6
20260503193052 12 69 0.0 3.2 0.00 0.00 0.00 91 1027.6
20260503191549 12 69 0.0 0.0 0.00 0.00 0.00 91 1027.7
20260503190049 12 69 0.0 0.0 0.00 0.00 0.00 91 1027.8
20260503184549 12 69 0.0 0.0 0.00 0.00 0.00 91 1027.8
20260503183048 12 69 0.0 3.2 0.00 0.00 0.00 91 1027.8
20260503181559 12 67 0.0 6.4 0.00 0.00 0.00 91 1027.8
20260503180046 12 68 0.0 3.2 0.00 0.00 0.00 91 1027.7
20260503174544 12 68 0.0 6.4 0.00 0.00 0.00 91 1027.7
20260503173054 12 207 0.0 3.2 0.00 0.00 0.00 92 1027.7
20260503171542 12 207 0.0 3.2 0.00 0.00 0.00 92 1027.6
20260503130130 15 230 0.0 3.2 0.00 0.00 0.00 84 1027.3
20260503081522 18 188 0.0 3.2 0.00 0.00 0.00 66 1025.5
20260503071514 18 223 1.6 4.8 0.00 0.00 0.00 66 1025.3
20260503054509 18 217 1.6 8.0 0.00 0.00 0.00 67 1025.5
20260503053008 19 211 1.6 6.4 0.00 0.00 0.00 67 1025.7
20260503051504 19 47 1.6 6.4 0.00 0.00 0.00 64 1025.9
20260503050002 18 219 0.0 4.8 0.00 0.00 0.00 69 1025.9
20260503044609 17 218 3.2 6.4 0.00 0.00 0.00 75 1026.1
20260503043110 17 203 3.2 12.9 0.00 0.00 0.00 74 1026.2
20260503041558 18 53 1.6 6.4 0.00 0.00 0.00 69 1026.4
20260503040057 17 74 1.6 4.8 0.00 0.00 0.00 70 1026.7
20260503034553 17 94 1.6 4.8 0.00 0.00 0.00 72 1026.9
20260503033104 17 59 0.0 8.0 0.00 0.00 0.00 74 1027.1
20260503031546 16 119 1.6 6.4 0.00 0.00 0.00 78 1027.2
20260503030045 16 228 1.6 11.3 0.00 0.00 0.00 79 1027.3
20260503024543 15 348 1.6 4.8 0.00 0.00 0.00 81 1027.4
20260503023049 15 89 1.6 6.4 0.00 0.00 0.00 82 1027.4
20260503021535 15 50 1.6 4.8 0.00 0.00 0.00 84 1027.5
20260503020033 14 184 1.6 3.2 0.00 0.00 0.00 85 1027.5
20260503014530 13 188 0.0 4.8 0.00 0.00 0.00 87 1027.5
20260503013029 13 130 0.0 3.2 0.00 0.00 0.00 88 1027.6
20260503011526 13 219 1.6 4.8 0.00 0.00 0.00 89 1027.6
20260503010030 13 189 0.0 3.2 0.00 0.00 0.00 92 1027.5
20260503004521 12 190 0.0 4.8 0.00 0.00 0.00 92 1027.5
20260503003018 12 197 0.0 0.0 0.00 0.00 0.00 93 1027.4
20260503001518 12 197 0.0 3.2 0.00 0.00 0.00 93 1027.3
20260503000022 12 199 0.0 3.2 0.00 0.00 0.00 93 1027.1
20260502234513 12 194 0.0 4.8 0.00 0.00 0.00 93 1027.0
20260502233010 12 194 0.0 3.2 0.00 0.00 0.00 93 1026.6
20260502231511 12 194 1.6 3.2 0.00 0.00 0.00 93 1026.5
20260502230006 12 194 0.0 0.0 0.00 0.00 0.00 94 1026.3
20260502224505 11 194 0.0 3.2 0.00 0.00 0.00 93 1026.2
20260502223006 11 192 0.0 1.6 0.00 0.00 0.00 93 1026.1
20260502221505 11 192 0.0 1.6 0.00 0.00 0.00 93 1026.1
20260502220003 11 192 0.0 3.2 0.00 0.00 0.00 94 1026.1
20260502214501 11 190 0.0 1.6 0.00 0.00 0.00 94 1026.0
20260502213002 11 190 0.0 0.0 0.00 0.00 0.00 94 1026.0
20260502211602 11 190 0.0 1.6 0.00 0.00 0.00 94 1025.7
20260502210057 11 190 0.0 1.6 0.00 0.00 0.00 94 1025.5